Wetbulb
30.26 31.52 32.18 32.51 32.69 32.79 32.45 31.65 29.08 25.33 26.13 30.31 31.53 32.92 33.82 34.57 37.30 34.40 34.05 39.58 40.78 42.29 43.40 44.15 44.93 45.70 46.30 47.15 47.85 48.54 49.02 49.49 50.07 50.82 51.53 52.30 53.37 54.87
30.50 30.57 30.65 31.33 31.39 31.51 31.51 31.61 31.47 29.66 26.80 30.22 31.05 31.48 32.79 35.05 36.21 33.33 33.22 37.43 38.68 40.42 41.62 42.51 43.83 44.95 45.67 46.25 46.83 47.43 47.98 48.63 49.42 50.36 51.02 51.52 52.05 52.60
28.68 27.89 28.81 29.63 29.94 29.75 30.57 30.47 30.07 30.13 27.72 29.81 31.31 31.59 30.85 31.04 32.08 31.93 34.05 33.53 33.77 38.30 40.36 41.42 42.12 42.68 43.09 43.66 44.21 44.97 45.74 46.65 47.41 48.26 48.92 49.48 50.19 50.98
27.28 27.69 27.89 30.24 27.44 28.68 29.16 28.88 29.18 29.23 28.57 26.74 29.23 29.44 29.73 30.39 30.31 30.68 33.35 35.03 33.16 36.70 39.15 39.76 40.09 40.66 41.26 42.14 43.03 43.80 44.37 44.94 45.59 46.20 46.81 47.36 48.14 48.85
27.42 27.47 27.72 28.03 27.19 27.25 27.34 27.59 28.16 30.46 28.96 27.79 27.80 29.66 29.50 29.97 30.38 30.66 30.98 30.72 33.79 35.91 36.73 37.44 38.24 39.51 40.42 40.59 40.73 41.14 41.46 41.69 42.05 42.68 43.45 44.30 45.41 46.92
28.52 28.85 28.63 28.34 27.67 27.47 28.07 27.67 28.56 27.41 27.94 27.37 27.21 27.65 28.00 29.69 29.47 28.17 28.18 29.79 29.34 32.45 34.00 35.40 36.87 37.38 38.09 38.74 38.98 38.64 38.74 39.55 40.61 41.63 42.29 42.74 43.36 44.46
27.78 28.44 29.24 30.30 32.23 32.01 30.98 28.54 28.12 27.41 27.26 27.36 27.31 27.54 27.97 27.67 26.97 28.23 26.54 27.51 28.87 29.92 30.17 31.37 32.13 32.38 32.69 35.32 35.61 36.60 38.10 39.62 40.36 40.99 41.54 41.97 42.25 42.86
26.64 27.28 27.67 29.28 29.73 32.03 32.64 33.10 31.77 27.74 27.68 27.37 27.37 26.75 27.00 26.84 27.22 26.15 26.67 26.23 25.30 30.32 29.21 28.20 30.48 29.82 31.35 32.04 35.51 37.16 37.95 38.32 39.06 39.66 40.27 40.82 41.13 41.64
26.55 26.31 26.66 28.98 29.14 28.33 29.85 31.48 31.42 32.36 32.53 29.06 26.52 25.53 25.06 26.17 26.74 26.85 27.99 28.07 26.55 28.96 27.59 25.06 28.17 26.82 29.91 31.66 34.23 35.83 36.59 37.43 38.68 39.77 40.52 41.07 41.48 41.99
26.09 25.94 26.34 27.01 27.46 28.53 28.29 27.80 28.05 28.51 28.85 29.01 27.76 27.58 28.12 29.40 30.44 30.01 28.55 26.30 26.64 27.27 27.90 23.07 26.07 25.70 28.43 29.04 33.02 34.32 36.70 36.88 36.92 37.29 37.59 37.78 38.02 38.65
26.26 26.51 26.79 26.96 28.95 30.52 28.33 28.05 27.22 27.70 30.46 31.90 32.06 32.09 32.31 32.61 31.44 27.56 24.59 23.82 22.39 24.44 25.82 24.30 25.76 24.27 25.77 26.38 29.29 32.59 33.94 34.54 34.64 34.98 35.62 36.31 36.70 36.89
25.94 25.96 28.32 27.92 29.37 29.81 26.30 24.82 22.94 25.12 26.42 26.51 26.76 28.34 27.27 25.79 28.78 26.37 25.07 21.89 21.39 20.91 26.50 22.80 23.66 23.70 21.05 25.94 26.41 27.53 27.75 31.03 32.46 33.27 33.76 34.01 34.38 31.71
22.08 24.32 26.19 28.28 28.48 28.92 28.98 24.87 25.50 27.15 24.69 23.49 23.80 23.47 24.26 24.41 25.21 23.90 23.50 21.91 20.03 20.36 24.74 24.45 22.54 22.26 22.18 22.18 24.69 25.59 25.94 26.69 26.93 27.61 30.58 31.77 32.88 32.95
14.05 17.75 23.58 27.73 27.44 27.44 26.68 26.92 27.92 26.51 22.35 21.47 21.57 21.71 21.91 21.56 21.32 21.59 22.00 22.51 23.08 22.46 24.00 23.73 21.23 21.23 20.44 19.64 19.49 23.96 24.18 24.91 25.60 25.67 26.50 29.00 31.09 32.04
20.04 20.89 25.82 26.91 26.03 22.58 23.47 23.87 22.40 20.17 19.84 18.88 18.27 18.69 19.23 19.80 20.65 21.08 21.90 22.14 22.07 22.54 23.85 23.47 22.56 22.48 21.54 19.39 19.13 20.48 21.60 23.30 24.45 24.42 25.85 25.55 25.52 26.28
27.22 25.91 25.62 21.32 21.23 17.23 12.85 10.57 11.30 16.94 18.09 16.80 16.69 17.54 18.61 18.66 18.25 19.48 18.11 19.00 18.48 19.02 22.38 22.96 22.60 21.83 19.68 20.14 20.03 18.82 20.72 19.45 23.15 23.63 24.58 25.25 25.93 26.60
17.04 15.07 14.79 14.53 12.48 10.72 6.53 3.15 4.32 2.49 4.89 2.01 13.43 15.22 15.97 15.96 15.77 17.29 17.48 16.77 15.29 15.88 16.83 19.71 21.48 21.39 21.09 19.98 17.76 19.24 19.78 20.46 22.49 23.19 23.49 22.65 24.44 25.15
14.13 9.77 6.24 5.90 9.81 8.58 8.52 6.62 0.46 6.06 -0.64 2.78 2.55 4.55 10.42 12.01 12.90 14.87 15.11 14.28 13.26 14.13 14.98 16.93 17.91 17.15 17.38 20.19 23.40 19.40 20.84 20.80 21.89 22.62 21.54 20.67 21.58 24.89
15.22 10.12 7.46 5.36 3.67 4.38 4.93 4.96 6.26 0.81 -4.31 -3.51 -3.60 -2.39 1.05 2.89 8.23 10.63 11.50 11.48 11.33 12.78 14.68 16.62 14.98 14.05 11.89 11.04 18.23 24.03 19.91 19.43 19.08 19.85 22.02 22.61 22.20 24.24
17.04 12.13 10.04 8.07 3.80 4.23 2.78 2.23 0.31 0.53 3.68 0.33 -1.79 -3.28 -4.27 -1.55 -1.17 2.30 3.81 2.60 7.58 12.67 11.54 12.02 12.32 12.83 12.26 12.37 13.59 15.82 20.93 18.90 19.15 19.76 20.37 23.11 24.16 27.54
14.36 12.59 11.27 10.03 8.92 8.08 7.03 4.77 2.07 1.78 1.48 -1.23 -2.06 -2.90 -2.35 -5.22 -3.29 -2.97 -1.42 12.40 12.59 1.21 4.46 6.87 9.82 18.22 15.44 14.29 11.15 13.46 17.55 22.04 22.08 20.71 20.90 20.28 20.07 21.09
15.29 13.47 11.94 11.25 10.43 9.73 9.48 8.81 6.84 5.03 0.82 -2.01 -1.56 -2.32 -2.09 -4.76 -3.45 -2.84 -1.06 -1.34 1.57 3.34 4.50 7.16 9.50 10.52 11.57 12.11 10.82 11.87 13.06 16.33 19.72 23.42 24.62 24.08 20.77 18.34
15.37 13.52 12.46 11.99 10.97 9.92 8.58 7.69 6.32 5.18 4.92 1.34 -1.44 0.25 -1.42 -1.04 -2.14 -0.75 -1.77 -3.75 -2.95 1.14 4.58 4.17 7.42 8.96 5.01 8.17 10.31 8.63 8.91 12.21 14.97 14.99 16.84 23.81 26.15 26.78
MSLP
1025.86 1025.73 1025.60 1025.50 1025.52 1025.44 1025.15 1025.49 1025.82 1026.11 1025.74 1025.61 1025.74 1025.60 1025.49 1025.10 1024.96 1024.85 1024.54 1024.32 1023.89 1023.50 1023.34 1022.99 1022.89 1022.76 1022.20 1022.03 1021.68 1021.68 1021.40 1021.11 1020.89 1020.50 1020.07 1019.74 1019.41 1019.18
1026.52 1026.05 1026.00 1026.02 1025.72 1025.92 1025.63 1025.56 1026.09 1026.68 1026.61 1025.87 1025.78 1025.87 1025.55 1025.23 1025.03 1025.15 1024.84 1024.36 1023.99 1023.83 1023.46 1023.00 1022.86 1022.57 1022.11 1021.79 1021.47 1021.28 1021.02 1020.77 1020.39 1020.24 1019.85 1019.51 1019.12 1018.83
1026.33 1026.25 1026.32 1026.26 1026.15 1026.13 1026.10 1025.94 1026.31 1026.91 1026.95 1026.25 1025.89 1025.69 1025.61 1025.48 1025.39 1025.16 1024.83 1024.34 1024.12 1023.97 1023.44 1022.92 1022.73 1022.56 1022.05 1021.64 1021.35 1021.29 1020.96 1020.76 1020.19 1019.88 1019.48 1019.08 1018.70 1018.39
1026.67 1026.40 1026.51 1026.62 1026.71 1026.48 1026.34 1026.43 1026.64 1026.71 1026.87 1026.68 1026.29 1026.01 1025.72 1025.72 1025.44 1025.26 1024.60 1024.25 1024.19 1023.76 1023.29 1022.77 1022.46 1022.30 1021.83 1021.55 1021.08 1020.87 1020.62 1020.45 1020.13 1019.78 1019.39 1019.01 1018.55 1018.06
1026.94 1026.70 1027.15 1026.66 1026.83 1026.62 1026.50 1026.70 1026.65 1026.62 1026.66 1026.83 1026.82 1026.45 1025.89 1025.67 1025.26 1024.93 1024.62 1024.23 1024.16 1023.43 1022.93 1022.68 1022.24 1022.00 1021.62 1021.38 1021.04 1020.66 1020.36 1020.06 1019.74 1019.52 1019.06 1018.57 1018.17 1017.69
1027.04 1026.78 1026.94 1026.73 1026.63 1026.45 1026.47 1026.77 1026.51 1026.70 1026.86 1026.80 1026.64 1026.47 1026.06 1025.69 1025.47 1025.10 1024.51 1024.46 1023.90 1023.13 1022.54 1022.48 1022.09 1021.91 1021.39 1021.01 1020.72 1020.55 1019.99 1019.71 1019.15 1018.98 1018.55 1018.12 1017.69 1017.34
1026.97 1026.80 1026.76 1026.59 1026.34 1026.17 1026.18 1026.23 1026.49 1026.37 1026.76 1026.67 1026.56 1026.24 1026.01 1025.56 1025.55 1025.45 1025.00 1024.25 1023.70 1023.03 1022.73 1022.38 1021.92 1021.70 1021.04 1020.68 1020.37 1019.94 1019.66 1019.10 1018.42 1018.16 1017.91 1017.50 1017.04 1016.75
1027.03 1026.89 1026.82 1026.56 1026.62 1026.10 1025.74 1025.90 1025.99 1026.31 1026.23 1026.55 1026.37 1026.16 1026.08 1025.65 1025.51 1025.30 1025.21 1024.72 1024.09 1022.95 1022.87 1022.21 1021.67 1021.16 1020.82 1020.53 1019.89 1019.29 1018.81 1018.57 1018.05 1017.55 1017.32 1016.87 1016.40 1016.08
1026.96 1026.96 1026.72 1026.42 1026.62 1026.43 1026.29 1026.22 1026.20 1025.83 1025.69 1026.01 1026.26 1026.16 1025.91 1025.70 1025.59 1025.32 1025.22 1024.68 1024.46 1023.93 1023.40 1021.65 1021.20 1020.77 1020.56 1020.10 1019.57 1018.84 1018.20 1017.86 1017.46 1016.97 1016.52 1016.05 1015.55 1015.12
1026.82 1026.85 1026.80 1026.71 1026.67 1026.37 1026.24 1026.26 1026.15 1025.99 1026.14 1026.05 1026.06 1025.87 1025.82 1025.51 1025.41 1025.14 1025.02 1024.43 1024.27 1023.83 1023.35 1021.97 1021.06 1020.65 1020.16 1019.47 1018.74 1018.37 1017.77 1017.49 1017.28 1016.86 1016.36 1015.83 1015.24 1014.66
1026.31 1026.38 1026.43 1026.27 1026.13 1025.82 1025.70 1025.83 1025.86 1025.92 1025.89 1025.73 1025.47 1025.48 1025.20 1025.01 1025.22 1024.97 1024.99 1024.76 1023.96 1023.43 1023.06 1022.46 1021.39 1020.59 1019.81 1019.00 1018.55 1018.21 1017.87 1017.48 1017.03 1016.58 1015.97 1015.30 1014.67 1014.08
1025.98 1026.05 1025.85 1025.80 1025.64 1025.51 1025.48 1025.70 1025.74 1025.74 1025.79 1025.73 1025.63 1025.33 1025.50 1025.51 1025.10 1025.20 1025.18 1024.94 1024.75 1023.95 1022.97 1022.87 1021.92 1021.70 1020.27 1019.01 1018.72 1018.08 1018.00 1017.34 1016.71 1016.06 1015.51 1014.91 1014.35 1013.66
1025.57 1025.64 1025.62 1025.45 1025.42 1025.38 1025.30 1025.47 1025.59 1025.49 1025.77 1025.76 1025.62 1025.59 1025.46 1025.29 1025.17 1025.28 1025.28 1025.23 1024.85 1024.13 1023.35 1023.42 1022.55 1022.39 1021.97 1020.04 1018.74 1018.44 1017.89 1016.88 1016.27 1015.52 1014.89 1014.46 1013.91 1013.36
1025.07 1025.04 1025.25 1025.14 1025.22 1025.22 1025.38 1025.42 1025.19 1025.47 1025.77 1025.75 1025.57 1025.40 1025.30 1025.26 1025.27 1025.25 1025.09 1024.81 1024.45 1023.97 1023.62 1023.71 1023.04 1022.66 1021.85 1020.48 1019.07 1017.91 1017.23 1016.54 1015.79 1015.00 1014.46 1013.87 1013.20 1012.54
1024.11 1024.72 1024.81 1024.88 1025.10 1025.65 1025.66 1025.64 1025.94 1026.14 1026.06 1025.96 1025.82 1025.69 1025.62 1025.57 1025.25 1024.81 1024.47 1024.27 1023.98 1023.65 1023.16 1022.93 1022.64 1022.03 1021.56 1020.60 1019.08 1017.90 1016.82 1015.60 1015.44 1014.74 1014.09 1013.55 1012.71 1012.05
1023.40 1023.89 1024.31 1025.13 1025.65 1026.06 1026.49 1027.16 1027.25 1026.86 1026.59 1026.54 1026.49 1026.29 1025.83 1025.56 1025.37 1024.93 1024.62 1024.22 1023.58 1022.99 1022.75 1022.40 1021.93 1021.53 1020.82 1019.98 1019.12 1017.64 1017.15 1016.79 1015.06 1014.52 1013.65 1012.85 1012.20 1011.47
1023.18 1023.88 1024.73 1025.40 1026.00 1026.55 1027.05 1027.44 1027.71 1027.67 1027.34 1027.31 1027.12 1026.79 1026.35 1026.05 1025.67 1025.33 1024.74 1024.19 1023.70 1022.92 1022.31 1021.88 1021.44 1020.94 1020.29 1019.49 1018.33 1017.25 1016.59 1015.80 1014.94 1013.90 1013.09 1012.02 1011.42 1010.60
1023.43 1024.01 1024.76 1025.37 1026.00 1026.63 1027.30 1027.82 1027.88 1027.81 1027.77 1027.74 1027.70 1027.58 1027.24 1026.79 1026.05 1025.50 1025.15 1024.52 1023.78 1023.20 1022.48 1021.90 1021.21 1020.49 1019.57 1017.84 1017.20 1016.56 1015.87 1015.24 1014.34 1013.54 1013.21 1011.91 1010.45 1009.50
1022.71 1023.72 1024.43 1025.21 1025.87 1026.49 1026.99 1027.53 1027.83 1027.73 1027.84 1027.93 1027.99 1027.86 1027.64 1027.28 1026.72 1026.15 1025.69 1025.16 1024.19 1023.45 1022.82 1022.34 1021.77 1021.02 1020.05 1018.72 1016.88 1016.26 1015.89 1015.23 1014.41 1013.38 1012.34 1011.35 1009.86 1008.17
1021.81 1023.03 1023.92 1024.76 1025.61 1026.11 1026.58 1027.06 1027.29 1027.46 1027.71 1027.82 1027.83 1027.73 1027.76 1027.77 1027.20 1026.61 1026.08 1025.65 1024.74 1023.70 1023.13 1022.76 1022.16 1021.45 1020.78 1019.67 1018.22 1016.06 1016.12 1015.08 1014.17 1012.62 1011.45 1010.41 1009.19 1007.53
1021.36 1022.39 1023.19 1024.09 1024.82 1025.43 1025.91 1026.39 1026.72 1026.97 1027.16 1027.42 1027.44 1027.54 1027.62 1027.68 1027.31 1026.73 1026.22 1025.64 1024.79 1024.31 1023.66 1022.88 1022.14 1021.18 1020.55 1019.95 1018.77 1016.56 1014.76 1014.56 1013.97 1012.70 1011.18 1009.83 1008.03 1006.53
1021.02 1021.95 1022.81 1023.44 1024.12 1024.77 1025.34 1025.82 1026.30 1026.54 1026.69 1026.83 1026.99 1027.08 1027.13 1027.20 1027.18 1026.74 1026.23 1025.90 1025.17 1024.57 1023.79 1022.80 1021.79 1020.96 1020.34 1019.81 1018.74 1017.33 1015.46 1013.51 1013.02 1011.93 1010.95 1010.13 1008.92 1007.00
1020.51 1021.44 1022.22 1022.90 1023.56 1024.21 1024.82 1025.28 1025.60 1025.84 1026.07 1026.21 1026.29 1026.38 1026.57 1026.64 1026.35 1026.15 1025.97 1025.64 1025.44 1024.45 1023.66 1022.63 1021.40 1020.62 1020.30 1019.80 1018.83 1017.47 1016.08 1014.39 1012.51 1010.81 1009.64 1008.98 1007.83 1006.79
Wind_Speed
4 4 3 3 3 3 3 3 2 1 2 1 1 3 3 4 7 6 6 14 15 14 15 15 15 15 14 15 15 16 16 16 17 17 17 17 18 18
2 4 3 2 3 3 3 3 3 0 2 0 1 2 4 6 7 5 6 12 11 14 14 14 14 15 15 15 15 16 16 16 17 18 18 18 18 19
4 5 4 4 3 3 3 3 2 1 1 3 1 2 4 5 6 4 5 5 4 13 14 14 15 15 15 15 16 18 18 20 20 20 20 20 20 20
3 4 4 3 4 3 3 3 1 1 0 3 2 3 2 4 4 6 6 6 5 10 16 16 16 17 16 16 15 16 17 18 18 19 20 20 21 21
2 3 2 3 2 2 2 3 2 2 1 1 3 2 2 3 6 4 6 5 7 13 15 17 14 13 14 17 19 20 20 20 20 21 21 21 22 22
2 2 3 2 2 2 2 3 2 2 2 2 3 3 2 3 3 5 7 6 8 9 10 9 11 16 18 19 20 19 19 20 19 20 21 21 21 23
3 3 3 4 6 5 3 3 3 2 2 3 3 3 3 3 4 4 7 8 9 3 3 5 7 8 9 13 15 18 19 20 20 21 22 23 23 23
3 3 3 6 6 5 5 6 2 3 2 2 2 3 5 5 5 5 6 7 6 2 9 11 7 8 7 7 16 21 22 23 22 22 22 23 23 25
3 3 3 3 5 3 5 8 7 10 10 4 2 3 6 4 6 7 8 6 8 8 11 9 4 8 5 8 19 23 22 20 18 17 18 20 21 23
4 4 3 4 4 5 4 4 4 3 4 4 4 5 6 7 7 7 8 8 8 6 4 7 2 8 7 8 21 17 12 12 17 20 24 25 25 26
3 3 4 4 6 9 4 2 3 4 7 11 11 13 14 13 11 6 6 7 8 4 3 5 3 8 9 7 4 10 17 20 23 26 25 25 26 28
4 4 8 6 8 8 3 3 3 4 4 5 4 6 6 7 11 3 4 6 7 6 1 6 6 6 7 3 3 9 8 21 25 23 26 27 27 13
4 4 3 8 7 10 10 2 4 4 3 4 3 3 4 4 1 2 3 5 6 7 8 6 6 7 6 8 5 8 11 9 10 15 22 23 23 21
5 4 4 8 8 7 5 8 9 7 3 4 4 3 4 3 3 5 6 7 7 10 10 9 7 8 10 11 11 6 11 11 11 10 11 17 21 24
4 8 11 9 5 0 4 3 5 3 3 3 4 4 5 5 6 6 6 7 8 9 9 9 8 9 9 10 12 12 13 8 12 9 8 11 12 12
11 7 6 6 6 3 3 3 2 2 2 2 3 4 5 5 5 5 6 6 7 6 6 8 8 9 9 10 11 14 11 9 9 12 12 12 11 11
7 3 3 2 2 1 1 2 2 2 2 1 2 4 4 5 6 6 6 6 6 8 8 7 8 10 10 14 13 12 11 11 11 12 14 14 12 13
3 3 3 3 4 3 3 1 1 1 1 1 1 1 2 4 5 6 6 6 7 8 8 8 9 9 8 7 14 10 9 10 11 13 15 14 13 12
4 3 4 4 4 4 4 3 2 2 0 1 1 1 2 2 4 5 6 7 7 8 8 8 8 8 10 10 8 14 8 12 13 12 12 12 15 15
7 6 5 5 4 4 4 3 2 2 2 2 1 1 1 1 2 3 3 3 6 8 8 8 7 8 9 10 13 15 18 12 12 13 14 12 15 29
6 6 5 6 5 5 4 3 3 3 3 1 1 1 2 1 3 3 3 11 11 2 7 8 8 19 9 9 7 11 10 17 17 14 15 14 13 12
7 7 6 6 6 5 5 4 3 3 2 2 2 2 1 2 3 3 3 3 5 5 7 8 9 7 5 8 11 14 12 12 17 21 22 19 9 11
7 6 6 6 5 5 4 4 3 3 3 3 2 2 1 3 2 3 3 4 4 5 6 7 6 4 3 6 13 10 15 15 12 14 10 19 21 24
Wind_Direction
32 29 35 27 34 30 66 68 68 311 270 281 197 33 358 24 8 9 358 344 346 344 339 337 329 322 322 318 318 313 311 309 307 303 301 299 298 298
37 39 34 16 38 24 38 63 58 88 287 297 343 355 356 4 4 350 328 340 336 335 330 326 322 321 321 321 319 314 310 307 306 303 302 300 297 293
27 34 27 15 17 21 22 46 62 76 258 302 274 334 346 357 341 333 321 311 322 326 322 323 317 313 311 311 312 308 304 300 299 296 294 293 290 290
20 31 20 12 13 15 28 23 22 345 244 288 306 339 320 326 313 317 327 327 320 314 318 317 313 310 311 308 307 306 305 304 304 303 300 298 294 290
26 38 342 15 351 356 2 333 330 329 352 289 298 307 284 310 324 313 317 311 312 314 310 313 318 317 321 315 306 301 300 298 297 295 295 293 292 291
340 350 314 307 289 297 281 277 275 289 287 284 276 280 264 297 301 319 328 321 313 306 310 314 328 312 307 306 305 302 299 297 298 298 297 295 293 290
327 327 302 308 292 265 250 245 245 246 280 276 284 293 305 332 332 325 311 318 310 292 340 318 318 303 297 300 296 298 298 299 299 298 298 297 295 291
304 315 316 303 291 314 326 316 274 209 233 260 282 297 299 308 313 316 308 325 327 337 339 306 296 290 293 291 293 300 302 304 302 300 297 296 295 291
254 287 303 303 339 316 310 302 298 290 285 270 265 264 291 293 297 303 301 305 294 305 309 292 298 283 276 292 293 296 303 304 306 307 308 310 305 297
226 245 248 267 278 271 258 262 270 288 287 288 260 259 256 262 277 303 311 304 290 283 271 279 322 303 298 288 294 303 314 327 321 318 312 307 303 299
223 238 247 254 273 290 285 237 273 275 290 286 289 296 296 302 307 313 302 308 311 310 291 277 326 315 302 295 304 329 321 316 316 314 309 307 305 304
218 237 261 245 271 292 295 228 255 275 270 278 282 291 303 294 300 298 306 297 303 300 100 339 336 357 317 291 308 329 310 302 307 304 308 307 306 301
212 217 228 249 276 292 281 175 227 257 348 328 301 273 265 259 273 350 313 286 278 266 291 316 319 310 275 301 287 297 286 296 302 301 302 303 303 302
204 211 225 241 273 283 322 298 300 342 323 301 294 301 314 325 327 303 282 269 262 270 285 281 276 286 284 292 291 303 297 295 291 296 303 298 298 302
196 215 211 220 238 37 300 324 344 326 310 312 318 320 328 316 299 295 299 290 280 272 274 274 271 282 279 278 285 297 306 308 297 289 295 301 299 302
201 211 183 140 152 132 73 46 16 337 323 319 318 321 318 322 317 318 311 307 302 296 297 289 287 289 286 279 284 285 288 288 300 295 293 292 292 287
123 90 113 128 151 159 62 40 17 26 62 334 331 323 327 330 324 321 315 319 305 310 314 311 308 296 281 279 279 274 284 285 288 295 302 299 297 292
127 137 155 158 172 168 181 213 330 268 269 290 283 287 321 328 322 333 325 322 318 314 313 318 319 319 308 268 251 272 283 295 299 305 301 292 291 288
151 160 158 167 174 169 168 179 199 202 168 239 237 276 296 291 340 329 330 325 321 319 313 316 323 324 320 307 287 280 299 306 300 294 295 295 295 295
159 160 164 165 169 171 171 175 204 211 214 201 244 273 289 276 315 310 311 286 302 317 318 313 312 322 313 307 304 297 291 289 294 297 298 293 288 291
154 151 150 162 167 168 172 174 180 192 188 198 224 243 286 245 293 287 296 330 335 310 307 304 299 307 303 291 279 291 299 300 298 298 304 303 305 306
151 153 162 158 161 168 172 172 180 202 193 200 233 244 248 230 280 294 299 301 305 290 285 288 299 301 302 302 296 298 297 306 308 300 300 291 297 302
150 153 155 156 156 163 165 174 182 195 198 217 228 245 278 306 271 272 278 281 278 294 304 303 306 308 271 290 299 296 298 306 315 322 310 308 311 308